{"data":{"norad_id":62132,"intl_designator":"2024-222U","name":"STARLINK-32507","alt_names":[],"object_type":"PAYLOAD","status":"ACTIVE","operator":null,"country":"US","launch_date":"2024-11-27","launch_site_code":"AFETR","launch_vehicle":null,"mission":null,"orbit_class":"UNKNOWN","rcs_meters":null,"size_class":null,"mass_kg":null,"dimensions":null,"purposes":["comms"],"wikipedia_slug":null,"has_3d_model":false,"image_url":null,"decayed_at":null,"tle_current":{"epoch":"2026-09-20T23:57:07.619904Z","epoch_age_seconds":139071,"freshness":"FRESH","line1":"1 62132U 24222U   26263.99800486  .00010183  00000+0  37892-3 0  9993","line2":"2 62132  43.0013 112.7689 0001395 273.3081  86.7611 15.27590863102472","mean_motion":15.27590863,"eccentricity":0.0001395,"inclination_deg":43.0013,"raan_deg":112.7689,"arg_perigee_deg":273.3081,"mean_anomaly_deg":86.7611,"bstar":0.00037892,"rev_number":10247,"period_min":94.266078364204,"perigee_km":482.05943757966,"apogee_km":483.97369942528,"semimajor_km":6861.1535685025,"source":"CELESTRAK","updated_at":"2026-09-22T09:00:49.527512Z"}}}